Overview Statistics Trail Chart Weather Telemetry Raw packets
 

This is the latest recevied weather packets stored in our database for station/object 1NW106. If no packets are shown the sender has not sent any weather packets the latest 10 day(s).

<< 13 14 15 16 17 18 19 >>
Time Temp. Humidity Pressure Rain* Wind** Luminosity Snow
1788264107 26.67° C 95% 1008.5 hPa 0 mm - - -
1788263506 27.22° C 94% 1008.3 hPa 0 mm - - -
1788262907 27.78° C 97% 1007.7 hPa 0 mm - - -
1788262307 27.78° C 96% 1007.7 hPa 0 mm - - -
1788261707 28.33° C 94% 1007.9 hPa 0 mm - - -
1788261106 28.89° C 87% 1008.7 hPa 0 mm - - -
1788260506 29.44° C 85% 1008.7 hPa 0 mm - - -
1788259303 29.44° C 86% 1008.5 hPa 0 mm - - -
1788256501 30° C 75% 1008.8 hPa 0 mm - - -
1788255900 30.56° C 72% 1008.9 hPa 0 mm - - -
1788255301 30.56° C 74% 1008.9 hPa 0 mm - - -
1788254701 30° C 78% 1008.8 hPa 0 mm - - -
1788254101 29.44° C 82% 1008.7 hPa 0 mm - - -
1788253501 29.44° C 82% 1008.6 hPa 0 mm - - -
1788252900 29.44° C 82% 1008.8 hPa 0 mm - - -
1788251701 28.89° C 85% 1008.7 hPa 0 mm - - -
1788251100 29.44° C 84% 1008.7 hPa 0 mm - - -
1788250501 29.44° C 83% 1008.8 hPa 0 mm - - -
1788249901 30.56° C 79% 1009.2 hPa 0 mm - - -
1788249301 29.44° C 82% 1009 hPa 0 mm - - -
1788248700 29.44° C 84% 1009.2 hPa 0 mm - - -
1788248101 28.89° C 84% 1009.4 hPa 0 mm - - -
1788247500 28.33° C 89% 1009.1 hPa 0 mm - - -
1788246900 28.89° C 84% 1009.6 hPa 0 mm - - -
1788246300 28.89° C 84% 1009.7 hPa 0 mm - - -

* Rain latest hour (hover to see other rain measurements)
** Current wind speed in m/s (hover to see current wind gust speed)